Weather History for Key West NAF, FL

Change the Weather History Date:

Monday, October 15, 2012

  Actual Average Record
Temperature  
Mean Temperature 81 °F -  
Max Temperature 88 °F 84 °F 90 °F (2007)
Min Temperature 75 °F 75 °F 67 °F (1977)
Cooling Degree Days 16    
Growing Degree Days 31 (Base 50)    
Moisture  
Dew Point 74 °F    
Average Humidity 81    
Maximum Humidity 94    
Minimum Humidity 63    
Precipitation  
Precipitation 0.98 in - - ()
Sea Level Pressure  
Sea Level Pressure 29.86 in    
Wind  
Wind Speed 7 mph (ENE)    
Max Wind Speed 15 mph    
Max Gust Speed 21 mph    
Visibility 8 miles    
Events Rain , Thunderstorm    
Averages and records for this station are not official NWS values.
T = Trace of Precipitation, MM = Missing Value Source: NWS Daily Summary

Daily Weather History Graph

Daily Weather History Graph

Search for Another Location

Airport:

Trip Planner

Search our weather history database for the weather conditions in past years. The results will help you decide how hot, cold, wet, or windy it might be!

Date:

Astronomy

Oct. 15, 2012 Rise Set
Actual Time 7:24 AM EDT 6:59 PM EDT
Civil Twilight 7:01 AM EDT 7:22 PM EDT
Nautical Twilight 6:35 AM EDT 7:49 PM EDT
Astronomical Twilight 6:08 AM EDT 8:15 PM EDT
Moon 7:27 AM EDT (10/15) 7:06 PM EDT (10/15)
Length of Visible Light 12h 20m
Length of Day
11h 34m
New Moon, 0% of the Moon is Illuminated
Oct 15
New Moon
Oct 21
First Quarter
Oct 29
Full
Nov 6
Last Quarter
Nov 13
New

Hourly Weather History & Observations

Time (EDT) Temp. Heat Index Dew Point Humidity Pressure Visibility Wind Dir Wind Speed Gust Speed Precip Events Conditions
12:53 AM 82.0 °F 87.9 °F 73.9 °F 76% 29.92 in 10.0 mi ENE 6.9 mph - N/A   Scattered Clouds
1:23 AM 80.6 °F 86.2 °F 75.2 °F 84% 29.92 in 10.0 mi NE 4.6 mph - N/A Thunderstorm Thunderstorm
1:42 AM 78.8 °F - 71.6 °F 78% 29.92 in 10.0 mi South 12.7 mph - N/A Thunderstorm Thunderstorm
1:53 AM 79.0 °F - 73.0 °F 82% 29.91 in 7.0 mi SSE 6.9 mph - 0.01 in Thunderstorm Thunderstorm
2:09 AM 78.8 °F - 73.4 °F 83% 29.90 in 4.0 mi ESE 8.1 mph - 0.05 in   Haze
2:15 AM 80.6 °F 86.2 °F 75.2 °F 84% 29.90 in 2.5 mi ESE 13.8 mph 18.4 mph 0.14 in Thunderstorm Unknown
2:23 AM 77.0 °F - 73.4 °F 89% 29.90 in 1.0 mi East 15.0 mph 20.7 mph 0.44 in Thunderstorm Overcast
2:33 AM 77.0 °F - 73.4 °F 89% 29.89 in 2.0 mi East 10.4 mph - 0.59 in Thunderstorm Overcast
2:42 AM 78.8 °F - 73.4 °F 83% 29.89 in 5.0 mi East 6.9 mph - 0.63 in Thunderstorm Overcast
2:50 AM 77.0 °F - 73.9 °F 90% 29.88 in 3.0 mi ESE 9.2 mph - 0.68 in   Overcast
2:59 AM 75.2 °F - 73.4 °F 94% 29.88 in 2.5 mi ESE 8.1 mph - 0.09 in   Overcast
3:07 AM 77.0 °F - 71.6 °F 83% 29.88 in 3.0 mi East 4.6 mph - 0.20 in   Haze
3:11 AM 77.0 °F - 73.4 °F 89% 29.87 in 2.0 mi ESE 3.5 mph - 0.24 in   Overcast
3:23 AM 78.8 °F - 73.4 °F 83% 29.86 in 6.0 mi Calm Calm - 0.28 in   Overcast
3:45 AM 78.8 °F - 75.2 °F 89% 29.85 in 10.0 mi NE 4.6 mph - 0.28 in   Partly Cloudy
3:53 AM 79.0 °F - 75.0 °F 88% 29.85 in 10.0 mi NE 6.9 mph - 0.28 in   Partly Cloudy
4:53 AM 80.1 °F 85.1 °F 75.0 °F 85% 29.83 in 10.0 mi NE 6.9 mph - N/A   Clear
5:53 AM 79.0 °F - 75.0 °F 88% 29.83 in 10.0 mi ENE 5.8 mph - N/A   Scattered Clouds
6:06 AM 78.8 °F - 75.2 °F 89% 29.84 in 10.0 mi NE 5.8 mph - N/A   Scattered Clouds
6:53 AM 79.0 °F - 73.9 °F 84% 29.84 in 10.0 mi ENE 5.8 mph - N/A   Scattered Clouds
7:53 AM 80.1 °F 85.4 °F 75.9 °F 87% 29.87 in 10.0 mi NE 6.9 mph - N/A   Mostly Cloudy
8:20 AM 80.6 °F 86.2 °F 75.2 °F 84% 29.87 in 7.0 mi ENE 4.6 mph - 0.00 in Rain Light Rain
8:35 AM 80.6 °F 86.2 °F 75.2 °F 84% 29.87 in 10.0 mi ENE 4.6 mph - 0.01 in   Mostly Cloudy
8:53 AM 80.1 °F 85.4 °F 75.9 °F 87% 29.87 in 10.0 mi ENE 4.6 mph - 0.01 in   Mostly Cloudy
9:53 AM 82.9 °F 90.8 °F 75.9 °F 79% 29.89 in 10.0 mi NE 5.8 mph - N/A   Mostly Cloudy
10:53 AM 84.9 °F 93.3 °F 75.0 °F 72% 29.89 in 10.0 mi ENE 8.1 mph - N/A   Mostly Cloudy
11:53 AM 84.9 °F 92.1 °F 73.9 °F 69% 29.90 in 10.0 mi East 11.5 mph - N/A   Mostly Cloudy
12:53 PM 87.1 °F 94.5 °F 73.0 °F 63% 29.88 in 10.0 mi Variable 5.8 mph - N/A   Mostly Cloudy
1:53 PM 87.1 °F 97.3 °F 75.9 °F 69% 29.86 in 10.0 mi NNE 11.5 mph - N/A   Mostly Cloudy
2:53 PM 82.9 °F 89.4 °F 73.9 °F 74% 29.83 in 10.0 mi East 8.1 mph - N/A   Mostly Cloudy
3:53 PM 87.1 °F 96.3 °F 75.0 °F 67% 29.81 in 10.0 mi NE 4.6 mph - N/A   Mostly Cloudy
4:53 PM 86.0 °F 93.0 °F 73.0 °F 65% 29.81 in 10.0 mi Variable 3.5 mph - N/A   Mostly Cloudy
5:53 PM 84.0 °F 90.2 °F 73.0 °F 69% 29.81 in 10.0 mi NNE 8.1 mph - N/A   Mostly Cloudy
6:53 PM 82.9 °F 89.4 °F 73.9 °F 74% 29.81 in 10.0 mi NNE 5.8 mph - N/A   Mostly Cloudy
7:53 PM 82.0 °F 87.9 °F 73.9 °F 76% 29.82 in 10.0 mi North 3.5 mph - N/A   Mostly Cloudy
8:53 PM 82.0 °F 87.9 °F 73.9 °F 76% 29.83 in 10.0 mi NNE 4.6 mph - N/A   Mostly Cloudy
9:53 PM 81.0 °F 86.2 °F 73.9 °F 79% 29.83 in 10.0 mi North 4.6 mph - N/A   Mostly Cloudy
10:53 PM 81.0 °F 86.2 °F 73.9 °F 79% 29.84 in 10.0 mi North 5.8 mph - N/A   Scattered Clouds
11:53 PM 80.1 °F 84.5 °F 73.9 °F 81% 29.84 in 10.0 mi Calm Calm - N/A   Overcast